Weather History for KDXX - December, 2012

Change the Weather History Date:

Friday, December 14, 2012

  Actual Average (KAQP) Record (KAQP)
Temperature  
Mean Temperature 13 °F -  
Max Temperature 21 °F 26 °F 57 °F (1998)
Min Temperature 5 °F 10 °F -13 °F (2007)
Degree Days  
Heating Degree Days 52    
Moisture  
Dew Point 12 °F    
Average Humidity 89    
Maximum Humidity 93    
Minimum Humidity 79    
Precipitation  
Precipitation 0.00 in - - ()
Sea Level Pressure  
Sea Level Pressure 29.90 in    
Wind  
Wind Speed 4 mph (SE)    
Max Wind Speed 10 mph    
Max Gust Speed -    
Visibility 6 miles    
Events      
Averages and records for this station are not official NWS values.
T = Trace of Precipitation, MM = Missing Value Source: NWS Daily Summary

Daily Weather History Graph

Daily Weather History Graph

Search for Another Location

Airport or City:

Trip Planner

Search our weather history database for the weather conditions in past years. The results will help you decide how hot, cold, wet, or windy it might be!

Date:

Astronomy

Dec. 14, 2012 Rise Set
Actual Time 7:55 AM CST 4:43 PM CST
Civil Twilight 7:21 AM CST 5:17 PM CST
Nautical Twilight 6:44 AM CST 5:54 PM CST
Astronomical Twilight 6:09 AM CST 6:30 PM CST
Moon 8:59 AM CST (12/14) 6:40 PM CST (12/14)
Length of Visible Light 9h 55m
Length of Day
8h 47m
Waxing Crescent, 3% of the Moon is Illuminated
Dec 14
Waxing Crescent
Dec 19
First Quarter
Dec 28
Full
Jan 4
Last Quarter
Jan 11
New

Hourly Weather History & Observations

Time (CST) Temp. Windchill Dew Point Humidity Pressure Visibility Wind Dir Wind Speed Gust Speed Precip Events Conditions
12:14 AM 6.8 °F -0.1 °F 3.2 °F 85% 30.11 in 10.0 mi South 3.5 mph - N/A   Clear
12:33 AM 8.6 °F - 5.0 °F 85% 30.10 in 7.0 mi Calm Calm - N/A   Clear
12:54 AM 6.8 °F - 1.4 °F 79% 30.08 in 7.0 mi Calm Calm - N/A   Clear
1:13 AM 8.6 °F - 3.2 °F 79% 30.07 in 7.0 mi Calm Calm - N/A   Clear
1:34 AM 6.8 °F -2.0 °F 3.2 °F 85% 30.07 in 7.0 mi South 4.6 mph - N/A   Clear
1:54 AM 6.8 °F -2.0 °F 3.2 °F 85% 30.08 in 7.0 mi South 4.6 mph - N/A   Clear
2:13 AM 8.6 °F 2.0 °F 5.0 °F 85% 30.08 in 7.0 mi South 3.5 mph - N/A   Clear
2:34 AM 6.8 °F -2.0 °F 3.2 °F 85% 30.09 in 7.0 mi South 4.6 mph - N/A   Clear
2:54 AM 6.8 °F -0.1 °F 3.2 °F 85% 30.08 in 7.0 mi South 3.5 mph - N/A   Clear
3:13 AM 5.0 °F - 1.4 °F 85% 30.07 in 7.0 mi Calm Calm - N/A   Clear
3:34 AM 5.0 °F -4.1 °F 1.4 °F 85% 30.06 in 7.0 mi SSE 4.6 mph - N/A   Clear
3:54 AM 6.8 °F - 3.2 °F 85% 30.06 in 5.0 mi Calm Calm - N/A   Clear
4:13 AM 6.8 °F -0.1 °F 3.2 °F 85% 30.05 in 5.0 mi SSE 3.5 mph - N/A   Clear
4:54 AM 6.8 °F -0.1 °F 3.2 °F 85% 30.03 in 7.0 mi SE 3.5 mph - N/A   Clear
5:13 AM 6.8 °F - 3.2 °F 85% 30.02 in 7.0 mi Calm Calm - N/A   Clear
5:34 AM 8.6 °F 2.0 °F 5.0 °F 85% 30.02 in 7.0 mi SE 3.5 mph - N/A   Clear
5:54 AM 10.4 °F 2.2 °F 6.8 °F 85% 30.01 in 7.0 mi SE 4.6 mph - N/A   Clear
6:13 AM 10.4 °F 2.2 °F 6.8 °F 85% 30.00 in 5.0 mi ESE 4.6 mph - N/A   Clear
6:34 AM 10.4 °F 0.8 °F 8.6 °F 92% 30.00 in 7.0 mi SE 5.8 mph - N/A   Clear
6:53 AM 10.4 °F 2.2 °F 6.8 °F 85% 29.99 in 5.0 mi ESE 4.6 mph - N/A   Clear
7:14 AM 8.6 °F -2.6 °F 6.8 °F 92% 29.99 in 4.0 mi ESE 6.9 mph - N/A   Clear
7:34 AM 8.6 °F -1.3 °F 6.8 °F 92% 29.99 in 3.0 mi ESE 5.8 mph - N/A   Clear
7:53 AM 10.4 °F -2.4 °F 8.6 °F 92% 29.98 in 4.0 mi SE 9.2 mph - N/A   Clear
8:14 AM 10.4 °F -0.4 °F 6.8 °F 85% 29.98 in 3.0 mi SE 6.9 mph - N/A   Clear
8:34 AM 10.4 °F 0.8 °F 6.8 °F 85% 29.98 in 4.0 mi SSE 5.8 mph - N/A   Clear
8:53 AM 10.4 °F -0.4 °F 8.6 °F 92% 29.97 in 4.0 mi SE 6.9 mph - N/A   Clear
9:14 AM 12.2 °F 1.7 °F 8.6 °F 85% 29.96 in 4.0 mi SE 6.9 mph - N/A   Clear
9:34 AM 12.2 °F 1.7 °F 10.4 °F 92% 29.96 in 5.0 mi SE 6.9 mph - N/A   Clear
9:53 AM 14.0 °F 5.1 °F 10.4 °F 86% 29.96 in 4.0 mi ESE 5.8 mph - N/A   Clear
10:14 AM 15.8 °F 7.2 °F 12.2 °F 86% 29.95 in 5.0 mi SE 5.8 mph - N/A   Clear
10:34 AM 15.8 °F 8.6 °F 14.0 °F 93% 29.95 in 5.0 mi SE 4.6 mph - N/A   Clear
10:53 AM 15.8 °F 7.2 °F 14.0 °F 93% 29.95 in 5.0 mi SE 5.8 mph - N/A   Clear
11:14 AM 17.6 °F 7.3 °F 15.8 °F 93% 29.94 in 5.0 mi SSE 8.1 mph - N/A   Clear
11:33 AM 17.6 °F 7.3 °F 15.8 °F 93% 29.93 in 5.0 mi SE 8.1 mph - N/A   Clear
11:54 AM 17.6 °F 7.3 °F 15.8 °F 93% 29.92 in 5.0 mi ESE 8.1 mph - N/A   Clear
12:14 PM 19.4 °F 9.5 °F 17.6 °F 93% 29.90 in 5.0 mi ESE 8.1 mph - N/A   Clear
12:33 PM 19.4 °F 9.5 °F 17.6 °F 93% 29.89 in 5.0 mi ESE 8.1 mph - N/A   Clear
1:14 PM 19.4 °F 9.5 °F 17.6 °F 93% 29.86 in 5.0 mi East 8.1 mph - N/A   Clear
1:33 PM 21.2 °F 10.9 °F 17.6 °F 86% 29.84 in 5.0 mi East 9.2 mph - N/A   Clear
1:54 PM 21.2 °F 10.1 °F 17.6 °F 86% 29.83 in 7.0 mi East 10.4 mph - N/A   Clear
2:14 PM 21.2 °F 11.7 °F 17.6 °F 86% 29.84 in 7.0 mi ESE 8.1 mph - N/A   Clear
2:33 PM 21.2 °F 12.6 °F 19.4 °F 93% 29.83 in 7.0 mi ESE 6.9 mph - N/A   Clear
2:54 PM 21.2 °F 13.6 °F 17.6 °F 86% 29.82 in 7.0 mi East 5.8 mph - N/A   Clear
3:14 PM 21.2 °F 12.6 °F 17.6 °F 86% 29.81 in 5.0 mi East 6.9 mph - N/A   Clear
3:33 PM 21.2 °F 12.6 °F 17.6 °F 86% 29.81 in 5.0 mi East 6.9 mph - N/A   Clear
4:14 PM 21.2 °F 12.6 °F 17.6 °F 86% 29.80 in 5.0 mi East 6.9 mph - N/A   Clear
4:33 PM 19.4 °F 14.3 °F 17.6 °F 93% 29.81 in 5.0 mi ESE 3.5 mph - N/A   Clear
4:54 PM 19.4 °F 12.8 °F 17.6 °F 93% 29.81 in 7.0 mi ESE 4.6 mph - N/A   Clear
5:14 PM 21.2 °F 13.6 °F 17.6 °F 86% 29.80 in 7.0 mi ESE 5.8 mph - N/A   Clear
5:33 PM 21.2 °F 14.9 °F 19.4 °F 93% 29.79 in 7.0 mi East 4.6 mph - N/A   Clear
5:54 PM 21.2 °F 13.6 °F 19.4 °F 93% 29.78 in 7.0 mi ESE 5.8 mph - N/A   Clear
6:14 PM 21.2 °F 16.4 °F 19.4 °F 93% 29.78 in 7.0 mi SE 3.5 mph - N/A   Clear
6:33 PM 21.2 °F - 19.4 °F 93% 29.79 in 5.0 mi Calm Calm - N/A   Clear
6:54 PM 19.4 °F - 17.6 °F 93% 29.77 in 5.0 mi Calm Calm - N/A   Clear
7:14 PM 17.6 °F - 15.8 °F 93% 29.77 in 5.0 mi Calm Calm - N/A   Clear
7:33 PM 19.4 °F - 17.6 °F 93% 29.76 in 5.0 mi Calm Calm - N/A   Clear
7:54 PM 17.6 °F - 15.8 °F 93% 29.75 in 5.0 mi Calm Calm - N/A   Clear
8:13 PM 17.6 °F 12.3 °F 15.8 °F 93% 29.74 in 5.0 mi NNW 3.5 mph - N/A   Clear
8:34 PM 17.6 °F - 15.8 °F 93% 29.74 in 5.0 mi Calm Calm - N/A   Clear
8:54 PM 19.4 °F 12.8 °F 17.6 °F 93% 29.74 in 5.0 mi WNW 4.6 mph - N/A   Clear
9:13 PM 19.4 °F 12.8 °F 15.8 °F 86% 29.74 in 5.0 mi NW 4.6 mph - N/A   Clear
9:34 PM 19.4 °F 14.3 °F 17.6 °F 93% 29.73 in 5.0 mi NW 3.5 mph - N/A   Clear
9:54 PM 21.2 °F - 17.6 °F 86% 29.72 in 5.0 mi Calm Calm - N/A   Clear
10:13 PM 21.2 °F - 17.6 °F 86% 29.72 in 5.0 mi Calm Calm - N/A   Clear
10:34 PM 21.2 °F 16.4 °F 17.6 °F 86% 29.71 in 5.0 mi WNW 3.5 mph - N/A   Clear
10:54 PM 21.2 °F 14.9 °F 17.6 °F 86% 29.71 in 5.0 mi WNW 4.6 mph - N/A   Clear
11:13 PM 21.2 °F 16.4 °F 17.6 °F 86% 29.69 in 5.0 mi WNW 3.5 mph - N/A   Clear
11:34 PM 19.4 °F 14.3 °F 17.6 °F 93% 29.68 in 4.0 mi NW 3.5 mph - N/A   Clear
11:54 PM 19.4 °F 12.8 °F 17.6 °F 93% 29.69 in 5.0 mi WNW 4.6 mph - N/A   Clear